| time (UTC) | temp F | wind direction | speed MPH | gust MPH | rain 1hr in | rain 24hr in | rain mn in | humidity % | barometer mb |
| 20260831151911 | 90 | 229 | 7.0 | 20.0 | 0.00 | 0.00 | 0.00 | 22 | 1018.3 |
| 20260831151436 | 90 | 230 | 8.0 | 20.0 | 0.00 | 0.00 | 0.00 | 23 | 1018.5 |
| 20260831151411 | 90 | 231 | 8.0 | 20.0 | 0.00 | 0.00 | 0.00 | 22 | 1018.5 |
| 20260831150911 | 90 | 231 | 8.0 | 19.0 | 0.00 | 0.00 | 0.00 | 23 | 1018.4 |
| 20260831150437 | 90 | 232 | 7.0 | 19.0 | 0.00 | 0.00 | 0.00 | 23 | 1018.5 |
| 20260831150411 | 90 | 229 | 7.0 | 19.0 | 0.00 | 0.00 | 0.00 | 23 | 1018.5 |
| 20260831145910 | 90 | 225 | 9.0 | 19.0 | 0.00 | 0.00 | 0.00 | 22 | 1018.4 |
| 20260831145437 | 90 | 228 | 10.0 | 22.0 | 0.00 | 0.00 | 0.00 | 21 | 1018.4 |
| 20260831145411 | 90 | 231 | 10.0 | 22.0 | 0.00 | 0.00 | 0.00 | 21 | 1018.4 |
| 20260831144912 | 90 | 233 | 9.0 | 22.0 | 0.00 | 0.00 | 0.00 | 21 | 1018.2 |
| 20260831144437 | 90 | 232 | 9.0 | 22.0 | 0.00 | 0.00 | 0.00 | 22 | 1018.3 |
| 20260831144412 | 90 | 231 | 9.0 | 22.0 | 0.00 | 0.00 | 0.00 | 22 | 1018.3 |
| 20260831143924 | 90 | 229 | 8.0 | 17.0 | 0.00 | 0.00 | 0.00 | 21 | 1018.3 |
| 20260831143920 | 91 | 230 | 7.0 | 17.0 | 0.00 | 0.00 | 0.00 | 21 | 1018.2 |
| 20260831143912 | 90 | 228 | 9.0 | 22.0 | 0.00 | 0.00 | 0.00 | 21 | 1018.2 |
| 20260831143622 | 90 | 228 | 8.0 | 21.0 | 0.00 | 0.00 | 0.00 | 22 | 1018.3 |
| 20260831142439 | 91 | 233 | 7.0 | 21.0 | 0.00 | 0.00 | 0.00 | 21 | 1018.3 |
| 20260831142406 | 91 | 231 | 7.0 | 21.0 | 0.00 | 0.00 | 0.00 | 21 | 1018.3 |
| 20260831141906 | 91 | 235 | 7.0 | 21.0 | 0.00 | 0.00 | 0.00 | 20 | 1018.1 |
| 20260831141650 | 91 | 235 | 6.0 | 22.0 | 0.00 | 0.00 | 0.00 | 20 | 1018.3 |
| 20260831141631 | 91 | 234 | 6.0 | 22.0 | 0.00 | 0.00 | 0.00 | 21 | 1018.3 |
| 20260831140906 | 90 | 229 | 7.0 | 22.0 | 0.00 | 0.00 | 0.00 | 20 | 1018.2 |
| 20260831140644 | 90 | 228 | 8.0 | 22.0 | 0.00 | 0.00 | 0.00 | 21 | 1018.1 |
| 20260831140627 | 90 | 230 | 8.0 | 22.0 | 0.00 | 0.00 | 0.00 | 20 | 1018.1 |
| 20260831135905 | 90 | 226 | 8.0 | 22.0 | 0.00 | 0.00 | 0.00 | 20 | 1018.2 |
| 20260831135644 | 90 | 226 | 9.0 | 16.0 | 0.00 | 0.00 | 0.00 | 21 | 1018.3 |
| 20260831135626 | 90 | 225 | 9.0 | 16.0 | 0.00 | 0.00 | 0.00 | 21 | 1018.3 |
| 20260831134905 | 90 | 227 | 8.0 | 18.0 | 0.00 | 0.00 | 0.00 | 21 | 1018.1 |
| 20260831134640 | 90 | 225 | 7.0 | 18.0 | 0.00 | 0.00 | 0.00 | 21 | 1018.2 |
| 20260831134622 | 90 | 222 | 7.0 | 18.0 | 0.00 | 0.00 | 0.00 | 21 | 1018.2 |
| 20260831134135 | 90 | 231 | 8.0 | 18.0 | 0.00 | 0.00 | 0.00 | 21 | 1018.2 |
| 20260831133437 | 90 | 235 | 9.0 | 18.0 | 0.00 | 0.00 | 0.00 | 21 | 1018.2 |
| 20260831133406 | 90 | 232 | 9.0 | 18.0 | 0.00 | 0.00 | 0.00 | 21 | 1018.2 |
| 20260831132906 | 90 | 232 | 8.0 | 18.0 | 0.00 | 0.00 | 0.00 | 21 | 1018.1 |
| 20260831132644 | 90 | 228 | 7.0 | 19.0 | 0.00 | 0.00 | 0.00 | 22 | 1018.1 |
| 20260831132626 | 90 | 229 | 7.0 | 19.0 | 0.00 | 0.00 | 0.00 | 22 | 1018.1 |
| 20260831131905 | 90 | 225 | 8.0 | 19.0 | 0.00 | 0.00 | 0.00 | 20 | 1018.3 |
| 20260831131439 | 90 | 220 | 9.0 | 21.0 | 0.00 | 0.00 | 0.00 | 21 | 1018.3 |
| 20260831131407 | 90 | 221 | 9.0 | 21.0 | 0.00 | 0.00 | 0.00 | 21 | 1018.3 |
| 20260831130905 | 90 | 223 | 9.0 | 21.0 | 0.00 | 0.00 | 0.00 | 21 | 1018.2 |
| 20260831130437 | 90 | 226 | 9.0 | 21.0 | 0.00 | 0.00 | 0.00 | 21 | 1018.3 |
| 20260831130407 | 90 | 226 | 9.0 | 21.0 | 0.00 | 0.00 | 0.00 | 22 | 1018.3 |
| 20260831125906 | 90 | 224 | 10.0 | 21.0 | 0.00 | 0.00 | 0.00 | 20 | 1018.5 |
| 20260831125437 | 90 | 223 | 9.0 | 21.0 | 0.00 | 0.00 | 0.00 | 21 | 1018.4 |
| 20260831125406 | 90 | 223 | 9.0 | 21.0 | 0.00 | 0.00 | 0.00 | 21 | 1018.4 |
| 20260831124905 | 90 | 229 | 10.0 | 21.0 | 0.00 | 0.00 | 0.00 | 21 | 1018.3 |
| 20260831124437 | 89 | 231 | 10.0 | 21.0 | 0.00 | 0.00 | 0.00 | 21 | 1018.5 |
| 20260831124405 | 89 | 230 | 10.0 | 21.0 | 0.00 | 0.00 | 0.00 | 21 | 1018.5 |
| 20260831123902 | 89 | 233 | 9.0 | 22.0 | 0.00 | 0.00 | 0.00 | 22 | 1018.4 |
| 20260831123636 | 89 | 228 | 9.0 | 22.0 | 0.00 | 0.00 | 0.00 | 21 | 1018.4 |
| 20260831123619 | 90 | 228 | 9.0 | 22.0 | 0.00 | 0.00 | 0.00 | 21 | 1018.4 |
| 20260831122900 | 89 | 218 | 9.0 | 22.0 | 0.00 | 0.00 | 0.00 | 22 | 1018.2 |
| 20260831122632 | 89 | 221 | 9.0 | 22.0 | 0.00 | 0.00 | 0.00 | 21 | 1018.4 |
| 20260831122616 | 89 | 220 | 9.0 | 22.0 | 0.00 | 0.00 | 0.00 | 21 | 1018.4 |
| 20260831121903 | 89 | 225 | 9.0 | 23.0 | 0.00 | 0.00 | 0.00 | 22 | 1018.4 |
| 20260831121437 | 89 | 229 | 10.0 | 23.0 | 0.00 | 0.00 | 0.00 | 23 | 1018.3 |
| 20260831121359 | 89 | 228 | 10.0 | 23.0 | 0.00 | 0.00 | 0.00 | 22 | 1018.3 |
| 20260831120900 | 89 | 228 | 10.0 | 23.0 | 0.00 | 0.00 | 0.00 | 22 | 1018.4 |
| 20260831120436 | 89 | 231 | 9.0 | 26.0 | 0.00 | 0.00 | 0.00 | 22 | 1018.6 |
| 20260831120358 | 89 | 231 | 9.0 | 26.0 | 0.00 | 0.00 | 0.00 | 22 | 1018.7 |
| 20260831120129 | 89 | 234 | 9.0 | 26.0 | 0.00 | 0.00 | 0.00 | 23 | 1018.6 |
| 20260831115437 | 89 | 232 | 10.0 | 26.0 | 0.00 | 0.00 | 0.00 | 23 | 1018.4 |
| 20260831115355 | 88 | 234 | 10.0 | 26.0 | 0.00 | 0.00 | 0.00 | 23 | 1018.5 |
| 20260831114855 | 88 | 230 | 9.0 | 26.0 | 0.00 | 0.00 | 0.00 | 23 | 1018.5 |
| 20260831114436 | 88 | 226 | 9.0 | 24.0 | 0.00 | 0.00 | 0.00 | 23 | 1018.5 |
| 20260831114356 | 88 | 225 | 10.0 | 24.0 | 0.00 | 0.00 | 0.00 | 23 | 1018.7 |
| 20260831113856 | 88 | 228 | 11.0 | 27.0 | 0.00 | 0.00 | 0.00 | 23 | 1018.5 |
| 20260831113437 | 88 | 223 | 9.0 | 27.0 | 0.00 | 0.00 | 0.00 | 23 | 1018.6 |
| 20260831113356 | 88 | 225 | 9.0 | 27.0 | 0.00 | 0.00 | 0.00 | 23 | 1018.6 |
| 20260831112856 | 89 | 228 | 9.0 | 27.0 | 0.00 | 0.00 | 0.00 | 23 | 1018.4 |
| 20260831112437 | 88 | 230 | 11.0 | 27.0 | 0.00 | 0.00 | 0.00 | 24 | 1018.6 |
| 20260831112355 | 88 | 228 | 11.0 | 27.0 | 0.00 | 0.00 | 0.00 | 23 | 1018.5 |
| 20260831111856 | 88 | 223 | 10.0 | 21.0 | 0.00 | 0.00 | 0.00 | 22 | 1018.6 |
| 20260831111438 | 88 | 228 | 10.0 | 22.0 | 0.00 | 0.00 | 0.00 | 23 | 1018.3 |
| 20260831111355 | 88 | 226 | 10.0 | 22.0 | 0.00 | 0.00 | 0.00 | 23 | 1018.3 |
| 20260831110855 | 88 | 230 | 10.0 | 22.0 | 0.00 | 0.00 | 0.00 | 23 | 1018.6 |
| 20260831110437 | 88 | 223 | 10.0 | 22.0 | 0.00 | 0.00 | 0.00 | 24 | 1018.9 |
| 20260831110354 | 88 | 225 | 10.0 | 22.0 | 0.00 | 0.00 | 0.00 | 23 | 1018.9 |
| 20260831105853 | 88 | 220 | 10.0 | 22.0 | 0.00 | 0.00 | 0.00 | 23 | 1018.9 |
| 20260831105437 | 88 | 227 | 9.0 | 22.0 | 0.00 | 0.00 | 0.00 | 22 | 1018.6 |
| 20260831105356 | 88 | 229 | 9.0 | 22.0 | 0.00 | 0.00 | 0.00 | 22 | 1018.6 |
| 20260831104854 | 88 | 236 | 8.0 | 22.0 | 0.00 | 0.00 | 0.00 | 22 | 1018.5 |
| 20260831104627 | 87 | 232 | 10.0 | 22.0 | 0.00 | 0.00 | 0.00 | 23 | 1018.4 |
| 20260831104609 | 87 | 233 | 10.0 | 22.0 | 0.00 | 0.00 | 0.00 | 23 | 1018.5 |
| 20260831103854 | 87 | 233 | 10.0 | 22.0 | 0.00 | 0.00 | 0.00 | 22 | 1018.6 |
| 20260831103433 | 87 | 232 | 9.0 | 21.0 | 0.00 | 0.00 | 0.00 | 23 | 1018.5 |
| 20260831103354 | 87 | 230 | 9.0 | 21.0 | 0.00 | 0.00 | 0.00 | 23 | 1018.5 |
| 20260831102854 | 87 | 227 | 7.0 | 21.0 | 0.00 | 0.00 | 0.00 | 23 | 1018.6 |
| 20260831102434 | 87 | 224 | 6.0 | 18.0 | 0.00 | 0.00 | 0.00 | 23 | 1018.6 |
| 20260831102353 | 87 | 221 | 6.0 | 18.0 | 0.00 | 0.00 | 0.00 | 24 | 1018.7 |
| 20260831101854 | 87 | 221 | 8.0 | 18.0 | 0.00 | 0.00 | 0.00 | 24 | 1018.7 |
| 20260831101433 | 86 | 226 | 9.0 | 18.0 | 0.00 | 0.00 | 0.00 | 25 | 1018.9 |
| 20260831101354 | 86 | 229 | 9.0 | 18.0 | 0.00 | 0.00 | 0.00 | 25 | 1018.9 |
| 20260831100854 | 86 | 242 | 8.0 | 18.0 | 0.00 | 0.00 | 0.00 | 26 | 1018.9 |
| 20260831100433 | 86 | 231 | 6.0 | 13.0 | 0.00 | 0.00 | 0.00 | 26 | 1018.7 |
| 20260831100354 | 86 | 230 | 6.0 | 13.0 | 0.00 | 0.00 | 0.00 | 26 | 1018.9 |
| 20260831095853 | 86 | 212 | 6.0 | 6.0 | 0.00 | 0.00 | 0.00 | 26 | 1019.0 |
| 20260831095433 | 85 | 213 | 6.0 | 6.0 | 0.00 | 0.00 | 0.00 | 36 | 1019.0 |
| 20260831095352 | 85 | 213 | 6.0 | 6.0 | 0.00 | 0.00 | 0.00 | 36 | 1018.9 |
| 20260831094852 | 85 | 213 | 6.0 | 6.0 | 0.00 | 0.00 | 0.00 | 36 | 1019.1 |
| 20260831094431 | 85 | 189 | 5.0 | 7.0 | 0.00 | 0.00 | 0.00 | 36 | 1019.1 |
| 20260831094352 | 85 | 186 | 5.0 | 7.0 | 0.00 | 0.00 | 0.00 | 36 | 1019.0 |
| 20260831093857 | 85 | 179 | 4.0 | 7.0 | 0.00 | 0.00 | 0.00 | 36 | 1019.2 |
| 20260831093430 | 84 | 227 | 6.0 | 7.0 | 0.00 | 0.00 | 0.00 | 36 | 1019.2 |
| 20260831093352 | 84 | 233 | 6.0 | 7.0 | 0.00 | 0.00 | 0.00 | 36 | 1019.3 |
| 20260831092851 | 83 | 260 | 7.0 | 11.0 | 0.00 | 0.00 | 0.00 | 36 | 1019.2 |
| 20260831092432 | 83 | 237 | 5.0 | 20.0 | 0.00 | 0.00 | 0.00 | 39 | 1019.3 |
| 20260831092350 | 83 | 235 | 5.0 | 20.0 | 0.00 | 0.00 | 0.00 | 39 | 1019.3 |
| 20260831091848 | 83 | 218 | 5.0 | 20.0 | 0.00 | 0.00 | 0.00 | 39 | 1019.2 |
| 20260831091431 | 82 | 240 | 7.0 | 20.0 | 0.00 | 0.00 | 0.00 | 39 | 1019.2 |
| 20260831091348 | 82 | 241 | 8.0 | 20.0 | 0.00 | 0.00 | 0.00 | 40 | 1019.1 |
| 20260831090847 | 82 | 237 | 9.0 | 20.0 | 0.00 | 0.00 | 0.00 | 40 | 1019.0 |
| 20260831090431 | 81 | 229 | 8.0 | 15.0 | 0.00 | 0.00 | 0.00 | 42 | 1019.1 |
| 20260831090347 | 81 | 227 | 8.0 | 15.0 | 0.00 | 0.00 | 0.00 | 42 | 1019.1 |
| 20260831085847 | 80 | 258 | 6.0 | 15.0 | 0.00 | 0.00 | 0.00 | 43 | 1019.1 |
| 20260831085431 | 78 | 274 | 4.0 | 10.0 | 0.00 | 0.00 | 0.00 | 46 | 1019.1 |
| 20260831085346 | 78 | 275 | 4.0 | 10.0 | 0.00 | 0.00 | 0.00 | 49 | 1019.1 |
| 20260831084846 | 77 | 260 | 3.0 | 5.0 | 0.00 | 0.00 | 0.00 | 49 | 1019.1 |
| 20260831084431 | 77 | 250 | 3.0 | 4.0 | 0.00 | 0.00 | 0.00 | 50 | 1019.1 |
| 20260831084345 | 77 | 249 | 3.0 | 4.0 | 0.00 | 0.00 | 0.00 | 50 | 1019.1 |
| 20260831083846 | 78 | 242 | 2.0 | 4.0 | 0.00 | 0.00 | 0.00 | 50 | 1019.3 |
| 20260831083430 | 78 | 208 | 2.0 | 4.0 | 0.00 | 0.00 | 0.00 | 50 | 1019.1 |
| 20260831083345 | 78 | 206 | 1.0 | 4.0 | 0.00 | 0.00 | 0.00 | 50 | 1019.1 |
| 20260831082846 | 77 | 223 | 2.0 | 3.0 | 0.00 | 0.00 | 0.00 | 51 | 1019.0 |
| 20260831082620 | 75 | 267 | 2.0 | 3.0 | 0.00 | 0.00 | 0.00 | 57 | 1018.9 |
| 20260831082603 | 77 | 264 | 2.0 | 3.0 | 0.00 | 0.00 | 0.00 | 51 | 1019.1 |
| 20260831082113 | 75 | 257 | 2.0 | 3.0 | 0.00 | 0.00 | 0.00 | 57 | 1019.0 |
| 20260831081428 | 75 | 247 | 1.0 | 3.0 | 0.00 | 0.00 | 0.00 | 57 | 1019.0 |
| 20260831081342 | 75 | 246 | 1.0 | 3.0 | 0.00 | 0.00 | 0.00 | 57 | 1019.1 |
| 20260831080841 | 75 | 246 | 0.0 | 0.0 | 0.00 | 0.00 | 0.00 | 55 | 1019.0 |
| 20260831080428 | 75 | 246 | 0.0 | 0.0 | 0.00 | 0.00 | 0.00 | 55 | 1019.0 |
| 20260831080340 | 75 | 246 | 0.0 | 0.0 | 0.00 | 0.00 | 0.00 | 55 | 1019.0 |
| 20260831075837 | 75 | 246 | 0.0 | 0.0 | 0.00 | 0.00 | 0.00 | 55 | 1019.0 |
| 20260831075427 | 75 | 246 | 0.0 | 0.0 | 0.00 | 0.00 | 0.00 | 55 | 1019.1 |
| 20260831075335 | 75 | 246 | 0.0 | 0.0 | 0.00 | 0.00 | 0.00 | 55 | 1019.1 |
| 20260831074838 | 75 | 242 | 0.0 | 1.0 | 0.00 | 0.00 | 0.00 | 55 | 1018.9 |
| 20260831074427 | 74 | 239 | 0.0 | 1.0 | 0.00 | 0.00 | 0.00 | 55 | 1018.9 |
| 20260831074337 | 74 | 238 | 0.0 | 2.0 | 0.00 | 0.00 | 0.00 | 55 | 1018.9 |
| 20260831073836 | 75 | 231 | 0.0 | 2.0 | 0.00 | 0.00 | 0.00 | 55 | 1018.9 |
| 20260831073427 | 75 | 131 | 0.0 | 2.0 | 0.00 | 0.00 | 0.00 | 55 | 1018.9 |
| 20260831073336 | 75 | 114 | 0.0 | 2.0 | 0.00 | 0.00 | 0.00 | 55 | 1018.9 |
| 20260831072835 | 75 | 92 | 0.0 | 2.0 | 0.00 | 0.00 | 0.00 | 55 | 1018.9 |
| 20260831072427 | 75 | 94 | 0.0 | 2.0 | 0.00 | 0.00 | 0.00 | 54 | 1018.9 |
| 20260831072333 | 76 | 94 | 0.0 | 2.0 | 0.00 | 0.00 | 0.00 | 55 | 1018.9 |
| 20260831071833 | 72 | 92 | 0.0 | 2.0 | 0.00 | 0.00 | 0.00 | 58 | 1018.6 |
| 20260831071428 | 72 | 88 | 0.0 | 2.0 | 0.00 | 0.00 | 0.00 | 58 | 1018.6 |
| 20260831071334 | 72 | 87 | 0.0 | 4.0 | 0.00 | 0.00 | 0.00 | 58 | 1018.6 |
| 20260831071106 | 72 | 76 | 1.0 | 4.0 | 0.00 | 0.00 | 0.00 | 58 | 1018.6 |
| 20260831070426 | 71 | 69 | 2.0 | 4.0 | 0.00 | 0.00 | 0.00 | 59 | 1018.6 |
| 20260831070332 | 71 | 68 | 2.0 | 4.0 | 0.00 | 0.00 | 0.00 | 65 | 1018.7 |
| 20260831070105 | 70 | 77 | 2.0 | 4.0 | 0.00 | 0.00 | 0.00 | 65 | 1018.6 |
| 20260831065428 | 70 | 77 | 1.0 | 4.0 | 0.00 | 0.00 | 0.00 | 65 | 1018.6 |
| 20260831065332 | 69 | 75 | 1.0 | 3.0 | 0.00 | 0.00 | 0.00 | 65 | 1018.6 |
| 20260831064830 | 69 | 62 | 0.0 | 4.0 | 0.00 | 0.00 | 0.00 | 65 | 1018.7 |
| 20260831064606 | 68 | 257 | 0.0 | 4.0 | 0.00 | 0.00 | 0.00 | 67 | 1018.7 |
| 20260831064553 | 68 | 274 | 0.0 | 4.0 | 0.00 | 0.00 | 0.00 | 66 | 1018.7 |
| 20260831064057 | 68 | 257 | 2.0 | 4.0 | 0.00 | 0.00 | 0.00 | 66 | 1018.9 |
| 20260831063427 | 68 | 239 | 2.0 | 4.0 | 0.00 | 0.00 | 0.00 | 67 | 1019.2 |
| 20260831063330 | 68 | 188 | 1.0 | 4.0 | 0.00 | 0.00 | 0.00 | 66 | 1019.1 |
| 20260831062830 | 69 | 75 | 0.0 | 2.0 | 0.00 | 0.00 | 0.00 | 66 | 1019.0 |
| 20260831062429 | 69 | 330 | 0.0 | 2.0 | 0.00 | 0.00 | 0.00 | 65 | 1019.0 |
| 20260831062329 | 69 | 318 | 0.0 | 2.0 | 0.00 | 0.00 | 0.00 | 71 | 1018.9 |
| 20260831061828 | 66 | 318 | 0.0 | 3.0 | 0.00 | 0.00 | 0.00 | 71 | 1018.6 |
| 20260831061425 | 66 | 38 | 1.0 | 6.0 | 0.00 | 0.00 | 0.00 | 71 | 1018.6 |
| 20260831061327 | 66 | 55 | 1.0 | 6.0 | 0.00 | 0.00 | 0.00 | 71 | 1018.6 |
| 20260831060826 | 66 | 79 | 2.0 | 6.0 | 0.00 | 0.00 | 0.00 | 71 | 1018.6 |
| 20260831060425 | 66 | 82 | 2.0 | 6.0 | 0.00 | 0.00 | 0.00 | 71 | 1018.6 |
| 20260831060326 | 66 | 76 | 2.0 | 6.0 | 0.00 | 0.00 | 0.00 | 71 | 1018.6 |
| 20260831055826 | 67 | 50 | 2.0 | 6.0 | 0.00 | 0.00 | 0.00 | 70 | 1018.4 |
| 20260831055422 | 66 | 57 | 1.0 | 4.0 | 0.00 | 0.00 | 0.00 | 70 | 1018.7 |
| 20260831055326 | 66 | 55 | 1.0 | 4.0 | 0.00 | 0.00 | 0.00 | 70 | 1018.6 |
| 20260831054827 | 66 | 53 | 0.0 | 4.0 | 0.00 | 0.00 | 0.00 | 70 | 1018.9 |
| 20260831054423 | 66 | 64 | 0.0 | 2.0 | 0.00 | 0.00 | 0.00 | 70 | 1018.7 |
| 20260831054326 | 66 | 64 | 0.0 | 2.0 | 0.00 | 0.00 | 0.00 | 70 | 1018.6 |
| 20260831053825 | 66 | 47 | 0.0 | 3.0 | 0.00 | 0.00 | 0.00 | 69 | 1018.7 |
| 20260831053422 | 66 | 288 | 1.0 | 4.0 | 0.00 | 0.00 | 0.00 | 69 | 1018.5 |
| 20260831053326 | 66 | 280 | 1.0 | 4.0 | 0.00 | 0.00 | 0.00 | 69 | 1018.5 |
| 20260831052826 | 66 | 69 | 0.0 | 4.0 | 0.00 | 0.00 | 0.00 | 69 | 1018.4 |
| 20260831052422 | 66 | 72 | 1.0 | 4.0 | 0.00 | 0.00 | 0.00 | 67 | 1018.3 |
| 20260831052326 | 66 | 71 | 1.0 | 4.0 | 0.00 | 0.00 | 0.00 | 67 | 1018.3 |
| 20260831051824 | 65 | 37 | 1.0 | 4.0 | 0.00 | 0.00 | 0.00 | 69 | 1018.1 |
| 20260831051423 | 65 | 302 | 1.0 | 2.0 | 0.00 | 0.00 | 0.00 | 71 | 1018.1 |
| 20260831051324 | 65 | 275 | 0.0 | 4.0 | 0.00 | 0.00 | 0.00 | 71 | 1018.2 |
| 20260831050824 | 65 | 208 | 0.0 | 4.0 | 0.00 | 0.00 | 0.00 | 72 | 1018.2 |
| 20260831050422 | 65 | 228 | 0.0 | 4.0 | 0.00 | 0.00 | 0.00 | 72 | 1018.0 |
| 20260831050321 | 65 | 234 | 0.0 | 4.0 | 0.00 | 0.00 | 0.00 | 72 | 1018.0 |
| 20260831045821 | 65 | 266 | 1.0 | 4.0 | 0.00 | 0.00 | 0.00 | 71 | 1018.0 |
| 20260831045423 | 66 | 47 | 1.0 | 4.0 | 0.00 | 0.00 | 0.00 | 69 | 1018.1 |
| 20260831045323 | 66 | 48 | 0.0 | 3.0 | 0.00 | 0.00 | 0.00 | 69 | 1018.1 |
| 20260831044822 | 67 | 52 | 1.0 | 3.0 | 0.00 | 0.00 | 0.00 | 65 | 1018.0 |
| 20260831044422 | 66 | 59 | 1.0 | 3.0 | 0.00 | 0.00 | 0.00 | 66 | 1018.0 |
| 20260831044322 | 66 | 61 | 1.0 | 3.0 | 0.00 | 0.00 | 0.00 | 67 | 1017.8 |
| 20260831043821 | 66 | 66 | 1.0 | 2.0 | 0.00 | 0.00 | 0.00 | 68 | 1018.0 |
| 20260831043556 | 65 | 79 | 0.0 | 1.0 | 0.00 | 0.00 | 0.00 | 71 | 1017.8 |
| 20260831043539 | 65 | 76 | 0.0 | 1.0 | 0.00 | 0.00 | 0.00 | 71 | 1017.9 |
| 20260831042821 | 64 | 84 | 0.0 | 1.0 | 0.00 | 0.00 | 0.00 | 74 | 1017.8 |
| 20260831042422 | 64 | 101 | 0.0 | 1.0 | 0.00 | 0.00 | 0.00 | 74 | 1018.0 |
| 20260831042321 | 64 | 122 | 0.0 | 1.0 | 0.00 | 0.00 | 0.00 | 74 | 1017.9 |
| 20260831041821 | 65 | 205 | 0.0 | 1.0 | 0.00 | 0.00 | 0.00 | 72 | 1018.0 |
| 20260831041421 | 66 | 203 | 0.0 | 0.0 | 0.00 | 0.00 | 0.00 | 70 | 1018.0 |
| 20260831041321 | 66 | 203 | 0.0 | 0.0 | 0.00 | 0.00 | 0.00 | 70 | 1017.9 |
| 20260831040821 | 66 | 203 | 0.0 | 0.0 | 0.00 | 0.00 | 0.00 | 70 | 1017.9 |
| 20260831040425 | 66 | 203 | 0.0 | 0.0 | 0.00 | 0.00 | 0.00 | 70 | 1018.0 |
| 20260831040321 | 66 | 203 | 0.0 | 0.0 | 0.00 | 0.00 | 0.00 | 70 | 1018.0 |
| 20260831035821 | 66 | 203 | 0.0 | 2.0 | 0.00 | 0.00 | 0.00 | 70 | 1018.0 |
| 20260831035420 | 66 | 203 | 0.0 | 2.0 | 0.00 | 0.00 | 0.00 | 70 | 1018.1 |
| 20260831035321 | 66 | 203 | 0.0 | 2.0 | 0.00 | 0.00 | 0.00 | 70 | 1018.0 |
| 20260831034820 | 66 | 200 | 0.0 | 3.0 | 0.00 | 0.00 | 0.00 | 70 | 1018.0 |
| 20260831034419 | 66 | 175 | 1.0 | 3.0 | 0.00 | 0.00 | 0.00 | 70 | 1018.0 |
| 20260831034320 | 66 | 179 | 1.0 | 3.0 | 0.00 | 0.00 | 0.00 | 70 | 1018.0 |
| 20260831033818 | 67 | 215 | 1.0 | 3.0 | 0.00 | 0.00 | 0.00 | 69 | 1018.3 |
| 20260831033417 | 67 | 278 | 0.0 | 3.0 | 0.00 | 0.00 | 0.00 | 68 | 1018.3 |
| 20260831033316 | 67 | 282 | 0.0 | 3.0 | 0.00 | 0.00 | 0.00 | 68 | 1018.3 |
| 20260831032816 | 67 | 77 | 0.0 | 2.0 | 0.00 | 0.00 | 0.00 | 62 | 1018.3 |
| 20260831032417 | 67 | 109 | 0.0 | 2.0 | 0.00 | 0.00 | 0.00 | 65 | 1018.3 |
| 20260831032315 | 67 | 111 | 0.0 | 3.0 | 0.00 | 0.00 | 0.00 | 66 | 1018.3 |
| 20260831031815 | 67 | 146 | 0.0 | 3.0 | 0.00 | 0.00 | 0.00 | 66 | 1018.4 |
| 20260831031418 | 67 | 235 | 0.0 | 3.0 | 0.00 | 0.00 | 0.00 | 66 | 1018.4 |
| 20260831031317 | 67 | 248 | 0.0 | 3.0 | 0.00 | 0.00 | 0.00 | 66 | 1018.5 |
| 20260831030817 | 67 | 277 | 0.0 | 3.0 | 0.00 | 0.00 | 0.00 | 67 | 1018.5 |
| 20260831030418 | 67 | 357 | 0.0 | 3.0 | 0.00 | 0.00 | 0.00 | 68 | 1018.4 |
| 20260831030317 | 66 | 23 | 0.0 | 3.0 | 0.00 | 0.00 | 0.00 | 68 | 1018.5 |
| 20260831025817 | 66 | 26 | 0.0 | 1.0 | 0.00 | 0.00 | 0.00 | 71 | 1018.3 |
| 20260831025556 | 66 | 247 | 0.0 | 1.0 | 0.00 | 0.00 | 0.00 | 71 | 1018.4 |
| 20260831025540 | 66 | 259 | 0.0 | 1.0 | 0.00 | 0.00 | 0.00 | 71 | 1018.4 |
| 20260831024818 | 68 | 208 | 1.0 | 3.0 | 0.00 | 0.00 | 0.00 | 68 | 1018.6 |
| 20260831024414 | 68 | 208 | 1.0 | 3.0 | 0.00 | 0.00 | 0.00 | 68 | 1018.6 |
| 20260831024316 | 68 | 208 | 1.0 | 3.0 | 0.00 | 0.00 | 0.00 | 68 | 1018.5 |
| 20260831024046 | 68 | 250 | 1.0 | 3.0 | 0.00 | 0.00 | 0.00 | 68 | 1018.9 |
| 20260831023413 | 68 | 333 | 1.0 | 3.0 | 0.00 | 0.00 | 0.00 | 68 | 1018.9 |
| 20260831023316 | 68 | 341 | 1.0 | 3.0 | 0.00 | 0.00 | 0.00 | 68 | 1019.0 |
| 20260831022816 | 67 | 348 | 1.0 | 3.0 | 0.00 | 0.00 | 0.00 | 69 | 1018.9 |
| 20260831022413 | 66 | 356 | 1.0 | 1.0 | 0.00 | 0.00 | 0.00 | 74 | 1018.9 |
| 20260831022316 | 66 | 0 | 1.0 | 1.0 | 0.00 | 0.00 | 0.00 | 74 | 1018.7 |
| 20260831021816 | 66 | 17 | 1.0 | 1.0 | 0.00 | 0.00 | 0.00 | 74 | 1018.7 |
| 20260831021413 | 66 | 26 | 1.0 | 2.0 | 0.00 | 0.00 | 0.00 | 75 | 1019.0 |
| 20260831021317 | 66 | 26 | 1.0 | 2.0 | 0.00 | 0.00 | 0.00 | 75 | 1018.9 |
| 20260831020816 | 66 | 26 | 1.0 | 2.0 | 0.00 | 0.00 | 0.00 | 75 | 1018.7 |
| 20260831020413 | 66 | 24 | 1.0 | 2.0 | 0.00 | 0.00 | 0.00 | 75 | 1018.9 |
| 20260831020316 | 66 | 17 | 1.0 | 2.0 | 0.00 | 0.00 | 0.00 | 75 | 1019.1 |
| 20260831015817 | 66 | 319 | 2.0 | 2.0 | 0.00 | 0.00 | 0.00 | 75 | 1019.1 |
| 20260831015412 | 67 | 285 | 2.0 | 2.0 | 0.00 | 0.00 | 0.00 | 73 | 1019.0 |
| 20260831015316 | 67 | 285 | 2.0 | 2.0 | 0.00 | 0.00 | 0.00 | 73 | 1019.1 |
| 20260831014816 | 67 | 285 | 2.0 | 3.0 | 0.00 | 0.00 | 0.00 | 73 | 1019.2 |
| 20260831014413 | 67 | 285 | 2.0 | 3.0 | 0.00 | 0.00 | 0.00 | 73 | 1019.1 |
| 20260831014316 | 67 | 285 | 2.0 | 3.0 | 0.00 | 0.00 | 0.00 | 73 | 1019.1 |
| 20260831013816 | 67 | 285 | 2.0 | 3.0 | 0.00 | 0.00 | 0.00 | 73 | 1019.2 |
| 20260831013413 | 67 | 291 | 1.0 | 3.0 | 0.00 | 0.00 | 0.00 | 73 | 1019.2 |
| 20260831013316 | 67 | 292 | 1.0 | 3.0 | 0.00 | 0.00 | 0.00 | 73 | 1019.2 |
| 20260831012815 | 67 | 290 | 0.0 | 2.0 | 0.00 | 0.00 | 0.00 | 73 | 1019.2 |
| 20260831012413 | 67 | 283 | 0.0 | 0.0 | 0.00 | 0.00 | 0.00 | 73 | 1019.1 |
| 20260831012315 | 67 | 281 | 0.0 | 0.0 | 0.00 | 0.00 | 0.00 | 73 | 1019.0 |
| 20260831011816 | 68 | 281 | 0.0 | 0.0 | 0.00 | 0.00 | 0.00 | 72 | 1019.2 |
| 20260831011412 | 68 | 281 | 0.0 | 0.0 | 0.00 | 0.00 | 0.00 | 72 | 1019.2 |
| 20260831011316 | 68 | 281 | 0.0 | 0.0 | 0.00 | 0.00 | 0.00 | 72 | 1019.3 |
| 20260831010816 | 68 | 281 | 0.0 | 0.0 | 0.00 | 0.00 | 0.00 | 72 | 1019.3 |
| 20260831010413 | 68 | 281 | 0.0 | 0.0 | 0.00 | 0.00 | 0.00 | 72 | 1019.2 |
| 20260831010316 | 68 | 281 | 0.0 | 0.0 | 0.00 | 0.00 | 0.00 | 72 | 1019.3 |
| 20260831005816 | 68 | 281 | 0.0 | 0.0 | 0.00 | 0.00 | 0.00 | 72 | 1019.3 |
| 20260831005412 | 68 | 280 | 0.0 | 0.0 | 0.00 | 0.00 | 0.00 | 72 | 1019.4 |
| 20260831005315 | 68 | 278 | 0.0 | 0.0 | 0.00 | 0.00 | 0.00 | 72 | 1019.4 |
| 20260831005044 | 68 | 270 | 0.0 | 0.0 | 0.00 | 0.00 | 0.00 | 72 | 1019.3 |
| 20260831004412 | 69 | 265 | 0.0 | 0.0 | 0.00 | 0.00 | 0.00 | 69 | 1019.6 |
| 20260831004316 | 69 | 265 | 0.0 | 0.0 | 0.00 | 0.00 | 0.00 | 69 | 1019.7 |
| 20260831003816 | 69 | 265 | 0.0 | 0.0 | 0.00 | 0.00 | 0.00 | 69 | 1019.7 |
| 20260831003412 | 69 | 265 | 0.0 | 1.0 | 0.00 | 0.00 | 0.00 | 69 | 1019.6 |
| 20260831003316 | 69 | 265 | 0.0 | 1.0 | 0.00 | 0.00 | 0.00 | 69 | 1019.6 |
| 20260831003048 | 69 | 280 | 0.0 | 1.0 | 0.00 | 0.00 | 0.00 | 69 | 1019.6 |
| 20260831002412 | 69 | 312 | 0.0 | 1.0 | 0.00 | 0.00 | 0.00 | 69 | 1019.6 |
| 20260831002320 | 69 | 319 | 0.0 | 1.0 | 0.00 | 0.00 | 0.00 | 69 | 1019.6 |
| 20260831001811 | 70 | 309 | 1.0 | 1.0 | 0.00 | 0.00 | 0.00 | 68 | 1019.8 |
| 20260831001412 | 71 | 299 | 1.0 | 1.0 | 0.00 | 0.00 | 0.00 | 61 | 1019.8 |
| 20260831001311 | 71 | 299 | 1.0 | 1.0 | 0.00 | 0.00 | 0.00 | 61 | 1019.9 |
| 20260831000811 | 71 | 299 | 1.0 | 1.0 | 0.00 | 0.00 | 0.00 | 61 | 1019.9 |
| 20260831000412 | 71 | 299 | 1.0 | 4.0 | 0.00 | 0.00 | 0.00 | 61 | 1019.9 |
| 20260831000310 | 71 | 299 | 1.0 | 4.0 | 0.00 | 0.00 | 0.00 | 61 | 1019.9 |
| 20260830235809 | 71 | 299 | 1.0 | 4.0 | 0.00 | 0.00 | 0.00 | 61 | 1019.9 |
| 20260830235413 | 71 | 292 | 2.0 | 4.0 | 0.00 | 0.00 | 0.00 | 61 | 1019.9 |
| 20260830235309 | 71 | 288 | 2.0 | 4.0 | 0.00 | 0.00 | 0.00 | 61 | 1019.9 |
| 20260830234806 | 71 | 271 | 3.0 | 4.0 | 0.00 | 0.00 | 0.00 | 61 | 1019.9 |
| 20260830234412 | 73 | 264 | 4.0 | 4.0 | 0.00 | 0.00 | 0.00 | 61 | 1020.0 |
| 20260830234305 | 73 | 264 | 4.0 | 4.0 | 0.00 | 0.00 | 0.00 | 61 | 1020.0 |
| 20260830233806 | 73 | 264 | 4.0 | 4.0 | 0.00 | 0.00 | 0.00 | 61 | 1019.9 |
| 20260830233411 | 73 | 264 | 4.0 | 4.0 | 0.00 | 0.00 | 0.00 | 61 | 1019.9 |
| 20260830233306 | 73 | 264 | 4.0 | 4.0 | 0.00 | 0.00 | 0.00 | 61 | 1019.9 |
| 20260830232805 | 73 | 264 | 4.0 | 4.0 | 0.00 | 0.00 | 0.00 | 61 | 1019.9 |
| 20260830232407 | 73 | 264 | 4.0 | 4.0 | 0.00 | 0.00 | 0.00 | 61 | 1020.0 |
| 20260830232306 | 73 | 264 | 4.0 | 4.0 | 0.00 | 0.00 | 0.00 | 61 | 1020.0 |
| 20260830231806 | 73 | 264 | 4.0 | 4.0 | 0.00 | 0.00 | 0.00 | 61 | 1020.0 |
| 20260830231538 | 73 | 264 | 4.0 | 6.0 | 0.00 | 0.00 | 0.00 | 61 | 1020.1 |
| 20260830231525 | 73 | 264 | 4.0 | 4.0 | 0.00 | 0.00 | 0.00 | 61 | 1020.1 |
| 20260830230809 | 73 | 264 | 4.0 | 6.0 | 0.00 | 0.00 | 0.00 | 61 | 1020.1 |
| 20260830230407 | 73 | 264 | 4.0 | 6.0 | 0.00 | 0.00 | 0.00 | 61 | 1020.2 |
| 20260830230304 | 73 | 264 | 4.0 | 6.0 | 0.00 | 0.00 | 0.00 | 61 | 1020.2 |
| 20260830225802 | 73 | 255 | 5.0 | 6.0 | 0.00 | 0.00 | 0.00 | 61 | 1020.2 |
| 20260830225407 | 73 | 248 | 6.0 | 6.0 | 0.00 | 0.00 | 0.00 | 61 | 1020.3 |
| 20260830225305 | 73 | 246 | 6.0 | 6.0 | 0.00 | 0.00 | 0.00 | 62 | 1020.4 |
| 20260830224801 | 73 | 259 | 4.0 | 6.0 | 0.00 | 0.00 | 0.00 | 62 | 1020.4 |
| 20260830224406 | 73 | 270 | 3.0 | 6.0 | 0.00 | 0.00 | 0.00 | 62 | 1020.3 |
| 20260830224300 | 73 | 272 | 2.0 | 6.0 | 0.00 | 0.00 | 0.00 | 62 | 1020.3 |
| 20260830223758 | 73 | 261 | 1.0 | 5.0 | 0.00 | 0.00 | 0.00 | 62 | 1020.3 |
| 20260830223405 | 73 | 251 | 1.0 | 4.0 | 0.00 | 0.00 | 0.00 | 62 | 1020.3 |
| 20260830223257 | 73 | 250 | 0.0 | 4.0 | 0.00 | 0.00 | 0.00 | 61 | 1020.3 |
| 20260830222757 | 73 | 248 | 0.0 | 1.0 | 0.00 | 0.00 | 0.00 | 61 | 1020.3 |
| 20260830222534 | 73 | 248 | 0.0 | 1.0 | 0.00 | 0.00 | 0.00 | 61 | 1020.2 |
| 20260830222519 | 73 | 248 | 0.0 | 1.0 | 0.00 | 0.00 | 0.00 | 61 | 1020.3 |
| 20260830221756 | 73 | 248 | 1.0 | 2.0 | 0.00 | 0.00 | 0.00 | 61 | 1020.3 |
| 20260830221404 | 73 | 248 | 1.0 | 2.0 | 0.00 | 0.00 | 0.00 | 61 | 1020.4 |
| 20260830221256 | 73 | 248 | 1.0 | 2.0 | 0.00 | 0.00 | 0.00 | 61 | 1020.4 |
| 20260830220756 | 73 | 263 | 1.0 | 2.0 | 0.00 | 0.00 | 0.00 | 61 | 1020.3 |
| 20260830220404 | 73 | 280 | 2.0 | 2.0 | 0.00 | 0.00 | 0.00 | 61 | 1020.2 |
| 20260830220302 | 74 | 291 | 2.0 | 5.0 | 0.00 | 0.00 | 0.00 | 61 | 1020.4 |
| 20260830220256 | 73 | 285 | 2.0 | 2.0 | 0.00 | 0.00 | 0.00 | 61 | 1020.2 |
| 20260830215402 | 74 | 291 | 2.0 | 6.0 | 0.00 | 0.00 | 0.00 | 61 | 1020.2 |
| 20260830215252 | 74 | 291 | 2.0 | 6.0 | 0.00 | 0.00 | 0.00 | 61 | 1020.3 |
| 20260830214752 | 74 | 288 | 2.0 | 6.0 | 0.00 | 0.00 | 0.00 | 61 | 1020.2 |
| 20260830214402 | 74 | 280 | 2.0 | 7.0 | 0.00 | 0.00 | 0.00 | 61 | 1020.2 |
| 20260830214253 | 74 | 276 | 2.0 | 7.0 | 0.00 | 0.00 | 0.00 | 61 | 1020.2 |
| 20260830213752 | 74 | 260 | 2.0 | 7.0 | 0.00 | 0.00 | 0.00 | 60 | 1020.0 |
| 20260830213402 | 74 | 266 | 3.0 | 7.0 | 0.00 | 0.00 | 0.00 | 61 | 1020.0 |
| 20260830213252 | 74 | 272 | 2.0 | 7.0 | 0.00 | 0.00 | 0.00 | 61 | 1020.0 |
| 20260830213023 | 74 | 296 | 2.0 | 7.0 | 0.00 | 0.00 | 0.00 | 61 | 1020.1 |
| 20260830212403 | 73 | 321 | 1.0 | 4.0 | 0.00 | 0.00 | 0.00 | 62 | 1020.0 |
| 20260830212252 | 73 | 323 | 1.0 | 3.0 | 0.00 | 0.00 | 0.00 | 62 | 1019.8 |
| 20260830211752 | 73 | 306 | 1.0 | 4.0 | 0.00 | 0.00 | 0.00 | 63 | 1019.8 |
| 20260830211402 | 73 | 283 | 0.0 | 4.0 | 0.00 | 0.00 | 0.00 | 64 | 1019.8 |
| 20260830211251 | 73 | 278 | 0.0 | 4.0 | 0.00 | 0.00 | 0.00 | 64 | 1019.9 |
| 20260830210752 | 73 | 275 | 1.0 | 5.0 | 0.00 | 0.00 | 0.00 | 64 | 1019.8 |
| 20260830210402 | 73 | 274 | 1.0 | 6.0 | 0.00 | 0.00 | 0.00 | 63 | 1019.9 |
| 20260830210252 | 73 | 273 | 2.0 | 6.0 | 0.00 | 0.00 | 0.00 | 63 | 1019.8 |
| 20260830210025 | 73 | 273 | 2.0 | 6.0 | 0.00 | 0.00 | 0.00 | 62 | 1020.0 |
| 20260830205402 | 74 | 273 | 2.0 | 6.0 | 0.00 | 0.00 | 0.00 | 62 | 1019.9 |
| 20260830205250 | 74 | 277 | 2.0 | 6.0 | 0.00 | 0.00 | 0.00 | 62 | 1019.9 |
| 20260830204750 | 74 | 286 | 1.0 | 6.0 | 0.00 | 0.00 | 0.00 | 62 | 1019.8 |
| 20260830204404 | 74 | 289 | 1.0 | 5.0 | 0.00 | 0.00 | 0.00 | 61 | 1019.9 |
| 20260830204250 | 74 | 287 | 1.0 | 5.0 | 0.00 | 0.00 | 0.00 | 61 | 1019.8 |
| 20260830203750 | 74 | 292 | 1.0 | 5.0 | 0.00 | 0.00 | 0.00 | 61 | 1019.8 |
| 20260830203402 | 74 | 296 | 1.0 | 6.0 | 0.00 | 0.00 | 0.00 | 62 | 1019.8 |
| 20260830203250 | 74 | 297 | 1.0 | 6.0 | 0.00 | 0.00 | 0.00 | 61 | 1019.8 |
| 20260830202750 | 74 | 278 | 1.0 | 6.0 | 0.00 | 0.00 | 0.00 | 62 | 1019.8 |
| 20260830202402 | 74 | 266 | 1.0 | 6.0 | 0.00 | 0.00 | 0.00 | 62 | 1019.8 |
| 20260830202250 | 74 | 264 | 1.0 | 6.0 | 0.00 | 0.00 | 0.00 | 62 | 1019.7 |
| 20260830201748 | 74 | 276 | 2.0 | 6.0 | 0.00 | 0.00 | 0.00 | 61 | 1019.8 |
| 20260830201402 | 74 | 278 | 2.0 | 6.0 | 0.00 | 0.00 | 0.00 | 61 | 1019.8 |
| 20260830201249 | 74 | 277 | 1.0 | 6.0 | 0.00 | 0.00 | 0.00 | 61 | 1019.7 |
| 20260830200748 | 74 | 272 | 0.0 | 3.0 | 0.00 | 0.00 | 0.00 | 61 | 1019.7 |
| 20260830200403 | 74 | 270 | 0.0 | 1.0 | 0.00 | 0.00 | 0.00 | 62 | 1019.7 |
| 20260830200247 | 74 | 269 | 0.0 | 1.0 | 0.00 | 0.00 | 0.00 | 62 | 1019.7 |
| 20260830195747 | 74 | 56 | 0.0 | 1.0 | 0.00 | 0.00 | 0.00 | 61 | 1019.7 |
| 20260830195404 | 74 | 77 | 0.0 | 1.0 | 0.00 | 0.00 | 0.00 | 62 | 1019.6 |
| 20260830195246 | 74 | 77 | 0.0 | 0.0 | 0.00 | 0.00 | 0.00 | 63 | 1019.6 |
| 20260830194746 | 74 | 77 | 0.0 | 0.0 | 0.00 | 0.00 | 0.00 | 63 | 1019.6 |
| 20260830194402 | 74 | 77 | 0.0 | 0.0 | 0.00 | 0.00 | 0.00 | 63 | 1019.6 |
| 20260830194247 | 74 | 77 | 0.0 | 0.0 | 0.00 | 0.00 | 0.00 | 63 | 1019.6 |
| 20260830193747 | 74 | 77 | 0.0 | 0.0 | 0.00 | 0.00 | 0.00 | 63 | 1019.6 |
| 20260830193402 | 74 | 77 | 0.0 | 0.0 | 0.00 | 0.00 | 0.00 | 63 | 1019.6 |
| 20260830193247 | 74 | 77 | 0.0 | 0.0 | 0.00 | 0.00 | 0.00 | 63 | 1019.6 |
| 20260830192746 | 74 | 77 | 0.0 | 0.0 | 0.00 | 0.00 | 0.00 | 63 | 1019.6 |
| 20260830192402 | 75 | 77 | 0.0 | 0.0 | 0.00 | 0.00 | 0.00 | 62 | 1019.5 |
| 20260830192246 | 75 | 77 | 0.0 | 0.0 | 0.00 | 0.00 | 0.00 | 62 | 1019.6 |
| 20260830191746 | 75 | 77 | 0.0 | 0.0 | 0.00 | 0.00 | 0.00 | 62 | 1019.5 |
| 20260830191402 | 75 | 77 | 0.0 | 1.0 | 0.00 | 0.00 | 0.00 | 61 | 1019.5 |
| 20260830191245 | 75 | 77 | 0.0 | 1.0 | 0.00 | 0.00 | 0.00 | 61 | 1019.5 |
| 20260830190746 | 75 | 77 | 0.0 | 1.0 | 0.00 | 0.00 | 0.00 | 61 | 1019.3 |
| 20260830190402 | 75 | 77 | 0.0 | 1.0 | 0.00 | 0.00 | 0.00 | 61 | 1019.3 |
| 20260830190253 | 76 | 77 | 0.0 | 2.0 | 0.00 | 0.00 | 0.00 | 60 | 1019.3 |
| 20260830190247 | 76 | 77 | 0.0 | 1.0 | 0.00 | 0.00 | 0.00 | 61 | 1019.3 |
| 20260830185403 | 76 | 77 | 0.0 | 2.0 | 0.00 | 0.00 | 0.00 | 60 | 1019.2 |
| 20260830185247 | 76 | 77 | 0.0 | 2.0 | 0.00 | 0.00 | 0.00 | 60 | 1019.2 |
| 20260830185016 | 76 | 77 | 0.0 | 2.0 | 0.00 | 0.00 | 0.00 | 60 | 1019.1 |
| 20260830184404 | 76 | 76 | 0.0 | 2.0 | 0.00 | 0.00 | 0.00 | 59 | 1019.1 |
| 20260830184247 | 76 | 76 | 0.0 | 2.0 | 0.00 | 0.00 | 0.00 | 59 | 1019.1 |
| 20260830183746 | 76 | 75 | 0.0 | 2.0 | 0.00 | 0.00 | 0.00 | 58 | 1019.1 |
| 20260830183402 | 77 | 75 | 0.0 | 0.0 | 0.00 | 0.00 | 0.00 | 58 | 1019.1 |
| 20260830183246 | 77 | 75 | 0.0 | 0.0 | 0.00 | 0.00 | 0.00 | 58 | 1019.1 |
| 20260830182748 | 77 | 75 | 0.0 | 0.0 | 0.00 | 0.00 | 0.00 | 58 | 1018.9 |
| 20260830182404 | 77 | 75 | 0.0 | 0.0 | 0.00 | 0.00 | 0.00 | 58 | 1018.9 |
| 20260830182247 | 77 | 75 | 0.0 | 0.0 | 0.00 | 0.00 | 0.00 | 57 | 1018.9 |
| 20260830181746 | 77 | 75 | 0.0 | 0.0 | 0.00 | 0.00 | 0.00 | 57 | 1018.9 |
| 20260830181400 | 78 | 75 | 0.0 | 1.0 | 0.00 | 0.00 | 0.00 | 56 | 1018.9 |
| 20260830181245 | 78 | 75 | 0.0 | 1.0 | 0.00 | 0.00 | 0.00 | 56 | 1018.9 |
| 20260830180746 | 78 | 75 | 0.0 | 1.0 | 0.00 | 0.00 | 0.00 | 56 | 1018.9 |
| 20260830180401 | 78 | 75 | 0.0 | 1.0 | 0.00 | 0.00 | 0.00 | 57 | 1018.7 |
| 20260830180245 | 78 | 75 | 0.0 | 1.0 | 0.00 | 0.00 | 0.00 | 57 | 1018.7 |
| 20260830175746 | 78 | 74 | 0.0 | 2.0 | 0.00 | 0.00 | 0.00 | 55 | 1018.7 |
| 20260830175359 | 79 | 74 | 0.0 | 2.0 | 0.00 | 0.00 | 0.00 | 53 | 1018.7 |
| 20260830175248 | 79 | 74 | 0.0 | 2.0 | 0.00 | 0.00 | 0.00 | 53 | 1018.7 |
| 20260830174747 | 79 | 68 | 0.0 | 2.0 | 0.00 | 0.00 | 0.00 | 52 | 1018.7 |
| 20260830174359 | 79 | 69 | 1.0 | 2.0 | 0.00 | 0.00 | 0.00 | 52 | 1018.9 |
| 20260830174245 | 79 | 71 | 1.0 | 2.0 | 0.00 | 0.00 | 0.00 | 52 | 1018.9 |
| 20260830173746 | 79 | 104 | 0.0 | 2.0 | 0.00 | 0.00 | 0.00 | 52 | 1018.7 |
| 20260830173357 | 80 | 124 | 0.0 | 2.0 | 0.00 | 0.00 | 0.00 | 52 | 1018.6 |
| 20260830173246 | 80 | 132 | 0.0 | 2.0 | 0.00 | 0.00 | 0.00 | 51 | 1018.6 |
| 20260830172746 | 80 | 126 | 0.0 | 2.0 | 0.00 | 0.00 | 0.00 | 51 | 1018.6 |
| 20260830172530 | 80 | 116 | 0.0 | 2.0 | 0.00 | 0.00 | 0.00 | 51 | 1018.7 |
| 20260830172514 | 80 | 118 | 0.0 | 2.0 | 0.00 | 0.00 | 0.00 | 51 | 1018.7 |
| 20260830171746 | 80 | 115 | 0.0 | 2.0 | 0.00 | 0.00 | 0.00 | 50 | 1018.6 |
| 20260830171357 | 80 | 101 | 0.0 | 2.0 | 0.00 | 0.00 | 0.00 | 50 | 1018.6 |
| 20260830171246 | 80 | 98 | 0.0 | 2.0 | 0.00 | 0.00 | 0.00 | 49 | 1018.6 |
| 20260830170746 | 81 | 68 | 0.0 | 2.0 | 0.00 | 0.00 | 0.00 | 49 | 1018.6 |
| 20260830170357 | 81 | 170 | 0.0 | 2.0 | 0.00 | 0.00 | 0.00 | 49 | 1018.7 |
| 20260830170248 | 81 | 180 | 0.0 | 2.0 | 0.00 | 0.00 | 0.00 | 49 | 1018.7 |
| 20260830165746 | 81 | 165 | 0.0 | 2.0 | 0.00 | 0.00 | 0.00 | 49 | 1018.7 |
| 20260830165354 | 81 | 161 | 0.0 | 2.0 | 0.00 | 0.00 | 0.00 | 48 | 1018.7 |
| 20260830165244 | 81 | 163 | 0.0 | 2.0 | 0.00 | 0.00 | 0.00 | 49 | 1018.7 |
| 20260830164742 | 81 | 160 | 0.0 | 4.0 | 0.00 | 0.00 | 0.00 | 48 | 1018.7 |
| 20260830164355 | 81 | 158 | 0.0 | 6.0 | 0.00 | 0.00 | 0.00 | 48 | 1018.6 |
| 20260830164241 | 81 | 172 | 0.0 | 6.0 | 0.00 | 0.00 | 0.00 | 48 | 1018.6 |
| 20260830163742 | 82 | 173 | 1.0 | 6.0 | 0.00 | 0.00 | 0.00 | 48 | 1018.6 |
| 20260830163356 | 81 | 119 | 1.0 | 6.0 | 0.00 | 0.00 | 0.00 | 47 | 1018.4 |
| 20260830163241 | 81 | 106 | 1.0 | 6.0 | 0.00 | 0.00 | 0.00 | 47 | 1018.5 |
| 20260830163011 | 82 | 64 | 2.0 | 6.0 | 0.00 | 0.00 | 0.00 | 47 | 1018.5 |
| 20260830162352 | 82 | 61 | 1.0 | 6.0 | 0.00 | 0.00 | 0.00 | 47 | 1018.5 |
| 20260830162242 | 82 | 53 | 1.0 | 6.0 | 0.00 | 0.00 | 0.00 | 47 | 1018.6 |
| 20260830161741 | 82 | 15 | 1.0 | 6.0 | 0.00 | 0.00 | 0.00 | 47 | 1018.4 |
| 20260830161353 | 82 | 131 | 1.0 | 5.0 | 0.00 | 0.00 | 0.00 | 46 | 1018.4 |
| 20260830161241 | 82 | 161 | 2.0 | 5.0 | 0.00 | 0.00 | 0.00 | 47 | 1018.4 |
| 20260830160739 | 83 | 130 | 1.0 | 6.0 | 0.00 | 0.00 | 0.00 | 46 | 1018.4 |
| 20260830160351 | 83 | 123 | 1.0 | 6.0 | 0.00 | 0.00 | 0.00 | 46 | 1018.4 |
| 20260830160240 | 83 | 122 | 1.0 | 6.0 | 0.00 | 0.00 | 0.00 | 46 | 1018.4 |
| 20260830155737 | 83 | 113 | 2.0 | 8.0 | 0.00 | 0.00 | 0.00 | 46 | 1018.4 |
| 20260830155351 | 83 | 123 | 2.0 | 8.0 | 0.00 | 0.00 | 0.00 | 46 | 1018.4 |
| 20260830155237 | 83 | 117 | 2.0 | 8.0 | 0.00 | 0.00 | 0.00 | 46 | 1018.4 |
| 20260830154738 | 84 | 115 | 2.0 | 8.0 | 0.00 | 0.00 | 0.00 | 45 | 1018.5 |
| 20260830154352 | 84 | 106 | 2.0 | 8.0 | 0.00 | 0.00 | 0.00 | 46 | 1018.6 |
| 20260830154236 | 84 | 100 | 2.0 | 8.0 | 0.00 | 0.00 | 0.00 | 46 | 1018.5 |
| 20260830153736 | 85 | 138 | 2.0 | 7.0 | 0.00 | 0.00 | 0.00 | 45 | 1018.4 |
| 20260830153349 | 85 | 195 | 2.0 | 7.0 | 0.00 | 0.00 | 0.00 | 44 | 1018.5 |
| 20260830153236 | 85 | 193 | 2.0 | 7.0 | 0.00 | 0.00 | 0.00 | 44 | 1018.4 |
| 20260830152737 | 85 | 168 | 2.0 | 8.0 | 0.00 | 0.00 | 0.00 | 44 | 1018.4 |
| 20260830152508 | 85 | 49 | 2.0 | 8.0 | 0.00 | 0.00 | 0.00 | 44 | 1018.3 |
| 20260830152458 | 85 | 44 | 2.0 | 8.0 | 0.00 | 0.00 | 0.00 | 44 | 1018.4 |